sat.trackr.live / text

‹ back to catalog

ONEWEB-0207

NORAD 48242 · 2021-031AJ

PAYLOAD ACTIVE UNKNOWN

§ Identity

Operator
Country
UK
Launch date
2021-04-25
Launch site
VOSTO
Launch vehicle
Mass (kg)
RCS (m²)

Purposes: comms

External: N2YO · Heavens-Above · Gunter

§ Orbital elements

Epoch: 2026-09-09T01:24:41.915808Z

Period
109.55 min
Inclination
87.8907°
Eccentricity
0.0001896
Mean motion
13.14501188 rev/d
Perigee alt
1,204.4 km
Apogee alt
1,207.2 km
Semi-major
7,583.9 km
B*
5.2508e-4
RAAN
272.9782°
Arg perigee
102.5483°
Mean anomaly
257.5859°
Rev number
25,931

§ Raw data

ONEWEB-02071 48242U 21031AJ  26252.05881847  .00000207  00000+0  52508-3 0  99962 48242  87.8907 272.9782 0001896 102.5483 257.5859 13.14501188259318

JSON: /api/v1/satellites/48242 · /tle

For live sub-satellite position, see the globe view (requires WebGL).

§ Visibility from observer

Set your observer location to see the next 7 days of passes ≥ 10°. The values pass through the URL so the page stays shareable.

No JS? Fill the form by hand. The geolocation button needs JavaScript.